Hourly Data Report for October 30, 2015

All times are specified in Local Standard Time (LST). Add 1 hour to adjust for Daylight Saving Time where and when it is observed.

CLYDE RIVER A
NUNAVUT

70°29'09.000" N
68°31'01.000" W
26.50 m
2400804
71090
YCY

Download Data

Hourly Data (October 2015)
Hourly Data Report for October 30, 2015
Temp Definition
°C
Dew Point Temp Definition
°C
Rel Hum Definition
%
Wind Dir Definition
10's deg

Wind Spd Definition
km/h
Visibility Definition
km
Stn Press Definition
kPa
Hmdx Definition


Wind Chill Definition


Weather Definition


TIME
00:00 Legend Double Dagger -14.4 -17.8 76 29 24 16.1 100.15   -24 LegendNANA
01:00 Legend Double Dagger -15.2 -18.5 76 29 22 16.1 100.16   -25 LegendNANA
02:00 Legend Double Dagger -16.1 -19.4 76 30 21 16.1 100.19   -26 LegendNANA
03:00 Legend Double Dagger -15.6 -19.3 74 29 24 16.1 100.18   -26 LegendNANA
04:00 Legend Double Dagger -15.5 -19.4 73 25 11 16.1 100.19   -22 LegendNANA
05:00 Legend Double Dagger -15.7 -19.2 75 27 8 16.1 100.19   -21 LegendNANA
06:00 Legend Double Dagger -15.3 -19.0 74 26 8 16.1 100.19   -21 LegendNANA
07:00 Legend Double Dagger -15.2 -19.3 71 28 9 16.1 100.17   -21 LegendNANA
08:00 Legend Double Dagger -14.4 -18.6 71 27 15 16.1 100.14   -22 LegendNANA
09:00 Legend Double Dagger -14.3 -19.2 67 27 18 16.1 100.14   -23 LegendNANA
10:00 Legend Double Dagger -14.3 -19.6 65 27 11 16.1 100.15   -21 LegendNANA
11:00 Legend Double Dagger -15.2 -19.9 68 26 8 16.1 100.14   -21 LegendNANA
12:00 Legend Double Dagger -14.9 -19.9 66 26 15 16.1 100.12   -23 LegendNANA
13:00 Legend Double Dagger -15.9 -20.7 67 LegendMM 4 16.1 100.11   -19 LegendNANA
14:00 Legend Double Dagger -15.7 -20.1 70 25 13 16.1 100.08   -23 LegendNANA
15:00 Legend Double Dagger -16.2 -19.9 73 23 8 16.1 100.06   -22 LegendNANA
16:00 Legend Double Dagger -16.8 -20.5 73 28 17 16.1 100.04   -26 LegendNANA
17:00 Legend Double Dagger -16.9 -20.2 76 29 28 16.1 100.02   -28 LegendNANA
18:00 Legend Double Dagger -17.4 -20.7 76 29 28 16.1 100.00   -29 LegendNANA
19:00 Legend Double Dagger -16.3 -19.3 78 29 24 16.1 99.96   -27 LegendNANA
20:00 Legend Double Dagger -14.1 -17.0 79 29 22 16.1 99.94   -23 LegendNANA
21:00 Legend Double Dagger -13.6 -16.5 79 29 24 16.1 99.91   -23 LegendNANA
22:00 Legend Double Dagger -13.6 -16.9 76 29 24 16.1 99.88   -23 Snow
23:00 Legend Double Dagger -13.1 -17.0 73 29 28 16.1 99.86   -23 LegendNANA

Notes on Data Quality.

Legend

  • E = Estimated
  • M = Missing
  • NA = Not Available
  • ‡ = Partner data that is not subject to review by the National Climate Archives
Date modified: